User: anonymous   Login
Location: Unspecified
(0.0000°N, 0.0000°E)
Time: 00:19:44
(UTC+00:00)
Language:

USA 269 - Orbit

View from above orbital plane
View from above orbital plane
View from above satellite
View from above satellite

Ground track
Ground track

The orbit data is extracted from the following two-line orbital elements,

1 41724U 16047A   17078.16349928 0.00000000  00000-0  00000-0 0    04
2 41724   4.7275 327.7741 0005034 344.7333  15.2526  1.00270000    06
Epoch (UTC): 19 March 2017 03:55:26
Eccentricity: 0.0005034
inclination: 4.7275°
perigee height: 35765 km
apogee height: 35808 km
right ascension of ascending node: 327.7741°
argument of perigee: 344.7333°
revolutions per day: 1.00270000
mean anomaly at epoch: 15.2526°
orbit number at epoch: 0

The dashed part of the orbit path shows where the satellite is in the earth's shadow,  

DLR